Wind_Speed
11 11 11 11 11 12 12 12 12 12 12 12 13 13 14 15 16 18 19 20 21 22 24 25 26 27 28 28 29 29 28 28 27 26 27 27 27 28 29 30 30 28
11 11 11 11 11 12 12 13 13 13 14 14 14 15 15 16 17 18 19 20 22 23 23 24 25 26 26 27 28 28 27 27 26 26 26 26 27 28 29 29 29 28
10 11 11 11 11 12 12 13 13 14 15 15 15 16 16 17 17 18 19 20 21 22 23 24 24 25 25 26 27 27 26 26 25 25 25 26 26 27 28 28 28 27
10 10 11 11 11 11 12 12 12 13 15 16 16 16 16 16 17 17 18 19 20 21 22 23 24 25 26 27 28 27 26 25 25 25 25 25 25 26 28 28 27 26
10 11 11 11 12 12 13 13 13 14 14 16 16 17 17 16 16 17 18 19 20 20 21 23 24 25 27 28 29 29 27 25 24 24 24 25 24 25 26 27 27 26
11 11 12 12 13 13 14 14 15 15 16 17 17 17 18 18 18 18 18 20 20 21 22 23 24 26 27 28 29 29 28 26 24 24 24 24 24 24 25 26 26 26
12 12 12 13 13 14 14 15 15 16 17 18 18 19 20 20 20 20 20 21 22 22 23 24 25 27 27 27 28 29 29 27 25 24 24 24 23 23 24 24 25 26
13 13 14 14 14 15 15 16 16 17 18 19 20 21 22 22 23 23 22 22 23 23 24 24 25 26 27 27 29 29 28 27 26 24 23 23 22 22 23 23 24 25
14 14 15 15 16 16 17 17 18 19 19 20 22 23 23 24 24 24 24 24 24 24 24 25 25 25 26 30 33 31 29 27 26 26 25 23 21 21 22 22 23 24
14 15 16 16 17 17 18 19 20 20 21 22 23 24 25 25 25 25 25 24 24 24 24 25 26 26 28 32 34 31 27 26 26 27 26 25 21 20 20 21 22 23
15 16 16 17 18 19 20 20 21 22 22 23 24 24 25 25 26 26 25 24 23 24 25 26 26 27 29 32 32 28 25 25 26 27 28 27 23 19 19 20 21 22
15 17 17 17 18 20 21 21 22 22 22 23 23 24 25 25 26 26 26 24 24 25 28 29 28 27 28 31 31 29 25 24 25 27 28 29 24 19 18 19 20 20
16 17 18 18 19 20 21 22 22 23 23 24 24 25 26 26 27 28 27 24 24 27 29 31 32 28 26 28 31 30 28 26 26 27 28 29 25 19 18 19 18 17
19 20 20 21 21 22 23 24 25 25 25 26 26 27 28 28 28 30 31 27 26 28 30 33 36 31 24 26 30 30 29 28 27 27 27 28 25 22 22 20 16 15
22 24 25 25 25 25 25 25 26 27 28 28 29 29 29 29 29 30 32 31 29 31 33 35 37 34 28 27 29 30 29 27 27 27 27 28 27 26 25 20 14 13
22 24 26 27 28 28 28 28 28 28 29 30 30 31 31 31 31 31 32 32 31 32 34 36 36 35 32 31 30 30 30 28 27 26 26 26 28 28 25 19 14 12
24 24 25 26 26 28 30 31 31 31 32 32 31 32 32 32 33 33 34 34 33 32 34 35 36 35 34 34 33 32 32 31 28 27 25 24 25 25 23 18 13 12
25 26 26 27 27 28 29 31 32 33 34 35 35 35 35 36 36 36 35 35 35 34 34 34 36 37 35 34 34 35 37 36 31 27 25 22 21 21 20 17 13 12
27 28 29 30 31 31 32 33 34 34 34 36 37 37 38 39 39 39 39 39 39 39 37 35 37 39 37 33 33 35 37 36 34 30 24 20 19 18 17 16 13 12
29 31 32 33 34 34 35 35 35 35 35 36 37 37 38 39 39 39 39 40 41 41 39 35 36 37 36 33 33 33 33 32 33 33 27 20 18 16 14 13 12 11
32 34 35 36 36 36 36 36 36 37 36 36 36 36 37 37 37 36 36 37 37 38 37 34 32 32 32 32 32 32 32 30 30 33 31 27 22 15 11 11 11 11
33 34 35 35 35 35 34 33 34 35 34 34 33 34 34 35 34 33 33 34 34 34 33 32 30 29 30 31 31 31 31 29 28 30 31 29 25 17 11 10 10 10
33 33 34 34 34 34 33 32 32 32 32 32 32 32 32 32 32 31 31 32 33 33 32 31 30 29 29 30 30 30 30 28 26 27 27 27 25 19 12 9 9 11
35 35 35 34 33 33 33 33 32 31 31 31 32 32 32 31 31 30 29 31 31 31 32 33 32 29 27 27 28 29 29 27 24 24 24 24 25 23 15 9 9 12
35 34 33 33 32 32 32 32 32 32 32 32 32 32 32 32 31 30 29 30 30 30 31 32 32 29 27 26 27 27 27 26 24 22 22 23 25 25 19 12 10 12
33 32 32 31 31 32 32 32 33 34 34 33 32 32 32 31 30 30 29 28 29 30 30 29 28 28 26 25 25 24 25 25 24 23 22 22 23 24 21 16 12 13
Wind_Direction
16 14 11 8 6 4 3 0 356 351 346 342 337 333 330 328 327 326 328 329 330 331 331 330 331 330 331 332 332 333 332 332 334 335 338 340 342 345 347 350 354 354
12 10 7 6 4 2 1 359 358 354 350 346 341 336 334 331 331 330 331 332 331 332 332 332 332 331 332 334 334 334 332 331 332 333 336 339 340 343 346 348 352 353
7 5 360 359 356 354 355 353 353 353 350 349 346 341 337 333 333 333 332 333 333 334 335 335 335 334 334 335 335 335 332 331 331 331 334 337 338 341 343 346 350 352
2 1 356 354 352 348 349 348 348 349 348 348 348 346 342 337 335 334 334 335 335 336 337 337 337 337 336 337 337 335 333 331 331 331 332 335 337 338 340 344 348 350
354 354 351 349 348 345 345 344 343 344 343 344 344 344 342 339 336 335 335 335 335 336 336 336 338 338 338 339 338 337 335 332 331 331 332 333 335 336 338 342 346 349
349 348 346 343 342 340 340 340 339 338 338 338 337 337 336 335 334 333 332 332 332 333 333 334 336 338 338 337 337 336 335 333 331 330 331 332 332 334 336 340 344 348
344 342 340 338 337 336 335 335 335 333 333 332 331 332 331 329 329 327 327 328 327 328 330 331 334 335 335 334 332 332 332 332 331 329 329 330 330 332 334 338 342 346
338 335 336 334 333 333 331 331 331 329 329 328 327 327 326 326 325 324 323 323 323 325 326 328 332 332 333 333 330 327 326 328 329 328 327 326 328 330 331 335 341 345
332 330 331 330 329 329 327 326 326 325 325 325 324 324 323 323 322 320 320 319 320 323 324 325 328 327 330 333 330 324 320 322 325 326 326 325 325 327 330 334 338 343
325 325 325 325 325 325 324 323 323 322 322 322 322 322 322 321 320 319 318 317 318 320 321 323 323 321 326 332 331 327 322 320 322 324 326 327 325 325 328 331 334 339
320 320 321 322 321 321 322 321 321 320 321 321 321 321 320 319 318 317 317 317 317 318 320 321 319 318 324 330 332 331 326 322 325 328 330 330 326 323 326 326 328 336
316 318 320 321 319 319 320 319 319 319 318 317 317 317 317 317 317 317 317 316 316 317 319 319 317 316 322 328 331 331 326 324 329 332 331 330 327 322 320 319 323 335
312 315 316 317 317 316 315 315 315 314 314 314 314 314 315 316 317 316 314 313 314 316 317 316 314 311 317 326 329 328 326 326 330 331 327 327 326 317 310 311 320 336
312 313 313 313 313 312 312 313 313 312 313 315 315 315 315 315 316 315 314 316 317 316 314 314 312 309 313 324 327 326 325 326 327 325 323 324 322 313 308 310 320 336
313 315 316 315 314 313 313 313 313 314 315 317 317 316 315 315 315 314 315 317 318 315 312 314 316 314 315 320 320 321 322 322 322 321 320 321 319 317 319 317 317 333
313 316 317 316 317 318 318 316 316 315 316 316 316 315 314 314 314 313 313 313 313 311 311 314 317 316 315 314 313 316 317 315 315 316 316 316 317 323 329 325 317 328
318 319 319 318 319 321 320 319 319 318 316 315 314 312 311 311 311 311 310 309 309 307 308 311 311 311 313 313 310 311 311 308 308 310 310 311 316 325 333 327 318 325
322 322 322 321 320 319 318 317 317 316 314 314 313 311 310 310 311 309 307 307 306 304 306 308 306 306 310 312 310 309 308 306 305 304 303 307 313 323 330 326 319 319
323 321 319 318 316 315 313 311 311 310 309 311 312 310 310 311 310 309 308 308 306 305 306 306 304 305 309 310 310 309 308 307 305 299 297 302 308 315 321 320 315 312
323 320 317 316 315 313 311 310 309 308 309 310 309 308 308 309 309 309 308 308 307 307 309 308 305 305 307 307 307 307 308 309 306 301 296 295 297 302 310 312 307 305
322 321 318 318 316 315 315 313 312 311 311 310 308 306 305 306 307 306 306 306 306 308 311 312 310 308 305 302 301 303 306 308 308 305 302 296 290 290 299 303 298 297
320 319 317 317 316 316 315 313 311 311 310 309 307 305 304 305 305 305 303 303 305 307 309 311 313 311 305 300 299 300 302 306 308 309 307 304 300 295 293 294 288 285
318 318 317 318 318 317 317 315 314 313 311 309 309 308 308 308 307 306 304 303 304 306 306 308 310 311 306 302 300 300 302 305 308 308 308 309 307 297 285 283 280 271
320 319 319 320 320 319 319 319 318 316 313 312 313 313 313 313 312 309 306 304 304 305 305 307 310 312 311 307 304 303 304 306 306 306 305 308 307 297 282 272 267 264
320 319 320 321 320 320 320 319 318 317 316 316 316 316 317 317 316 313 310 308 306 305 306 308 311 314 315 311 307 305 307 307 307 305 303 305 306 301 292 279 264 260
320 320 321 320 319 319 319 318 318 318 319 319 319 319 319 319 318 316 315 313 309 307 310 312 312 314 314 313 310 308 309 310 308 306 304 302 302 301 297 288 273 264
Height
3105 3104 3103 3102 3101 3100 3100 3099 3098 3097 3096 3095 3093 3092 3091 3090 3089 3087 3086 3084 3083 3081 3079 3077 3075 3073 3071 3069 3066 3064 3062 3060 3058 3056 3053 3051 3048 3046 3043 3041 3038 3035
3105 3104 3104 3103 3102 3101 3100 3099 3098 3097 3095 3094 3093 3092 3091 3089 3088 3086 3085 3083 3082 3080 3078 3076 3074 3072 3070 3068 3065 3063 3061 3058 3056 3054 3052 3050 3047 3045 3043 3040 3038 3035
3105 3104 3104 3103 3102 3101 3100 3099 3098 3096 3095 3094 3093 3091 3090 3088 3087 3086 3084 3082 3081 3079 3077 3075 3073 3071 3069 3067 3064 3062 3059 3057 3055 3053 3051 3049 3047 3044 3042 3040 3038 3035
3105 3104 3103 3103 3102 3101 3100 3098 3097 3096 3095 3093 3092 3090 3089 3088 3086 3085 3083 3081 3080 3078 3076 3074 3072 3070 3068 3066 3064 3061 3059 3056 3054 3052 3050 3048 3046 3044 3041 3039 3037 3035
3105 3104 3103 3102 3101 3100 3099 3098 3097 3096 3095 3093 3092 3090 3088 3087 3085 3084 3082 3080 3079 3077 3075 3073 3071 3069 3067 3065 3063 3060 3058 3056 3053 3051 3049 3047 3045 3043 3041 3039 3037 3034
3105 3104 3103 3102 3101 3100 3099 3098 3096 3095 3094 3092 3091 3090 3088 3086 3084 3083 3081 3079 3077 3075 3074 3072 3070 3068 3066 3063 3061 3059 3057 3055 3052 3050 3048 3046 3044 3042 3040 3038 3036 3034
3104 3103 3102 3101 3100 3099 3098 3097 3096 3094 3093 3091 3090 3088 3087 3085 3083 3081 3080 3078 3076 3074 3072 3070 3068 3066 3064 3062 3060 3058 3056 3053 3051 3048 3046 3044 3043 3041 3039 3037 3035 3033
3103 3102 3101 3100 3099 3098 3097 3096 3095 3093 3092 3090 3089 3087 3085 3083 3082 3080 3078 3076 3074 3072 3070 3069 3067 3064 3062 3061 3059 3056 3054 3052 3049 3047 3045 3043 3041 3040 3038 3036 3034 3033
3102 3101 3100 3099 3098 3097 3096 3095 3093 3092 3091 3089 3087 3086 3084 3082 3080 3078 3076 3074 3073 3071 3069 3067 3065 3063 3061 3059 3057 3054 3052 3050 3048 3045 3043 3042 3040 3039 3037 3035 3033 3032
3101 3100 3099 3098 3097 3096 3094 3093 3092 3090 3089 3087 3086 3084 3082 3080 3078 3076 3075 3073 3071 3069 3067 3065 3063 3061 3060 3058 3055 3052 3050 3048 3046 3044 3042 3040 3039 3037 3036 3034 3032 3031
3100 3099 3098 3097 3095 3094 3093 3092 3090 3089 3087 3085 3084 3082 3080 3078 3076 3074 3073 3071 3069 3067 3065 3064 3061 3059 3057 3055 3052 3050 3048 3047 3045 3042 3040 3038 3037 3036 3035 3033 3031 3030
3098 3097 3096 3095 3094 3093 3091 3090 3088 3087 3085 3083 3082 3080 3078 3076 3074 3072 3070 3069 3067 3065 3063 3061 3059 3057 3055 3052 3050 3048 3047 3045 3042 3040 3038 3037 3035 3034 3033 3031 3029 3028
3097 3096 3095 3093 3092 3091 3089 3087 3086 3084 3083 3081 3080 3078 3076 3074 3072 3070 3068 3067 3065 3063 3061 3058 3055 3054 3052 3050 3048 3047 3045 3043 3040 3038 3037 3036 3034 3032 3031 3029 3028 3026
3094 3094 3093 3091 3090 3088 3087 3085 3083 3082 3080 3079 3077 3075 3074 3072 3070 3067 3065 3063 3062 3060 3059 3056 3052 3050 3050 3048 3046 3044 3043 3041 3038 3036 3036 3034 3032 3030 3028 3027 3026 3025
3092 3091 3090 3089 3088 3086 3085 3083 3081 3079 3078 3076 3074 3073 3071 3069 3067 3065 3063 3060 3059 3057 3055 3053 3050 3048 3047 3046 3044 3042 3041 3039 3037 3035 3034 3032 3030 3028 3026 3025 3024 3023
3091 3090 3088 3086 3084 3083 3082 3080 3079 3077 3075 3073 3071 3070 3068 3066 3065 3063 3061 3059 3057 3054 3052 3050 3049 3047 3045 3043 3042 3040 3038 3037 3035 3033 3032 3030 3028 3026 3025 3024 3022 3021
3090 3088 3087 3085 3083 3081 3079 3077 3075 3074 3072 3070 3069 3067 3065 3063 3062 3060 3057 3055 3054 3052 3049 3047 3045 3044 3042 3041 3039 3037 3035 3033 3031 3030 3029 3028 3026 3025 3024 3022 3021 3020
3087 3086 3084 3083 3081 3079 3077 3075 3073 3071 3068 3066 3065 3063 3061 3059 3058 3056 3054 3052 3050 3048 3046 3044 3041 3040 3040 3039 3037 3034 3031 3029 3028 3027 3026 3025 3024 3023 3022 3021 3020 3019
3085 3084 3082 3080 3078 3076 3074 3073 3071 3068 3066 3063 3061 3059 3057 3055 3053 3051 3049 3047 3045 3043 3043 3041 3038 3036 3036 3035 3034 3031 3028 3026 3025 3024 3023 3022 3021 3020 3020 3019 3018 3018
3083 3081 3079 3077 3075 3073 3071 3069 3067 3065 3063 3061 3059 3056 3054 3052 3050 3048 3046 3044 3041 3039 3039 3038 3036 3034 3033 3032 3030 3028 3025 3024 3023 3021 3020 3019 3018 3017 3018 3017 3017 3016
3080 3078 3076 3073 3071 3069 3067 3065 3062 3060 3059 3057 3055 3053 3051 3049 3047 3045 3043 3041 3039 3036 3035 3034 3033 3031 3030 3029 3027 3024 3022 3021 3020 3019 3017 3016 3014 3014 3015 3015 3014 3014
3077 3075 3073 3071 3069 3066 3064 3062 3060 3058 3056 3054 3052 3050 3048 3046 3044 3042 3040 3038 3036 3034 3033 3032 3031 3030 3027 3026 3024 3021 3019 3018 3018 3016 3015 3014 3013 3012 3012 3012 3012 3012
3075 3073 3070 3068 3066 3064 3061 3059 3057 3055 3053 3050 3048 3046 3045 3042 3040 3038 3036 3034 3032 3031 3030 3028 3028 3027 3025 3023 3021 3019 3017 3016 3015 3014 3013 3012 3012 3010 3009 3009 3010 3010
3072 3069 3067 3065 3062 3060 3058 3056 3054 3051 3049 3047 3045 3042 3041 3039 3036 3034 3033 3031 3029 3028 3026 3025 3024 3023 3022 3020 3018 3016 3015 3013 3013 3012 3011 3010 3010 3008 3007 3006 3007 3007
3069 3066 3064 3062 3059 3057 3055 3053 3050 3048 3046 3044 3041 3039 3037 3035 3033 3031 3029 3027 3025 3024 3023 3022 3020 3019 3018 3017 3015 3014 3013 3011 3010 3010 3009 3008 3007 3006 3006 3005 3005 3005
3066 3063 3061 3059 3057 3055 3053 3050 3047 3045 3042 3040 3038 3036 3034 3032 3030 3028 3026 3025 3022 3020 3020 3019 3018 3016 3016 3014 3013 3011 3010 3009 3008 3007 3007 3006 3005 3004 3004 3004 3004 3003